Williston, ND

6:37 PM CST on December 12, 2019 (GMT -0600)
Sloulin International

Weather History for KISN - August, 2019

Change the Weather History Date:

Monday, August 5, 2019

  Actual Average Record
Temperature  
Mean Temperature 71 °F 71 °F  
Max Temperature 85 °F 86 °F 104 °F (1941)
Min Temperature 57 °F 57 °F 41 °F (1977)
Degree Days  
Heating Degree Days 0 1  
Month to date heating degree days 0 5  
Since 1 June heating degree days 85 149  
Since 1 July heating degree days 15 29  
Cooling Degree Days 6 7  
Month to date cooling degree days 54 35  
Year to date cooling degree days 298 298  
Since 1 June cooling degree days 292 285  
Growing Degree Days 20 (Base 50)    
Moisture  
Dew Point 56 °F    
Average Humidity 63    
Maximum Humidity 93    
Minimum Humidity 32    
Precipitation  
Precipitation 0.20 in 0.04 in 1.21 in (1916)
Month to date precipitation 0.52 0.25  
Year to date precipitation 10.18 9.92  
Sea Level Pressure  
Sea Level Pressure 29.98 in    
Wind  
Wind Speed 6 mph (NW)    
Max Wind Speed 22 mph    
Max Gust Speed 32 mph    
Visibility 10 miles    
Events Rain , Thunderstorm    
T = Trace of Precipitation, MM = Missing Value Source: NWS Daily Summary

Daily Weather History Graph

Daily Weather History Graph

Search for Another Location

Airport or City:

Astronomy

Aug. 05, 2019 Rise Set
Actual Time 6:35 AM CDT 9:25 PM CDT
Civil Twilight 5:59 AM CDT 10:00 PM CDT
Nautical Twilight 5:13 AM CDT 10:46 PM CDT
Astronomical Twilight 4:17 AM CDT 11:41 PM CDT
Moon 12:17 PM CDT (8/5) No Moon Set
Length of Visible Light 16h 01m
Length of Day
14h 49m
Waxing Crescent, 28% of the Moon is Illuminated
Aug 5
Waxing Crescent
Aug 7
First Quarter
Aug 15
Full
Aug 23
Last Quarter
Aug 30
New

Hourly Weather History & Observations

Time (CDT) Temp. Heat Index Dew Point Humidity Pressure Visibility Wind Dir Wind Speed Gust Speed Precip Events Conditions
12:52 AM 66.0 °F - 59.0 °F 78% 29.94 in 10.0 mi NNE 9.2 mph - 0.09 in Rain Light Rain
1:52 AM 64.0 °F - 57.9 °F 80% 30.02 in 6.0 mi NNW 13.8 mph 32.2 mph 0.01 in Rain Rain
1:57 AM 63.0 °F - 57.9 °F 84% 30.03 in 3.0 mi North - - 0.07 in Rain , Thunderstorm Heavy Rain
2:23 AM 62.1 °F - 57.9 °F 86% 30.00 in 9.0 mi NE 13.8 mph 28.8 mph 0.17 in Rain Rain
2:52 AM 63.0 °F - 57.9 °F 84% 30.00 in 10.0 mi WNW 4.6 mph - 0.18 in Rain Light Rain
3:52 AM 62.1 °F - 57.0 °F 84% 29.96 in 10.0 mi Calm Calm - 0.01 in   Partly Cloudy
4:52 AM 61.0 °F - 57.9 °F 90% 29.97 in 10.0 mi NW 3.5 mph - N/A   Mostly Cloudy
5:52 AM 57.9 °F - 55.9 °F 93% 29.98 in 10.0 mi NW 4.6 mph - N/A   Clear
6:52 AM 57.9 °F - 55.9 °F 93% 30.00 in 10.0 mi Calm Calm - N/A   Partly Cloudy
7:52 AM 62.1 °F - 57.9 °F 86% 30.02 in 10.0 mi Calm Calm - N/A   Partly Cloudy
8:52 AM 66.0 °F - 59.0 °F 78% 30.03 in 10.0 mi WNW 4.6 mph - N/A   Clear
9:52 AM 69.1 °F - 60.1 °F 73% 30.04 in 10.0 mi NW 5.8 mph - N/A   Clear
10:52 AM 75.0 °F - 59.0 °F 57% 30.03 in 10.0 mi NW 9.2 mph - N/A   Clear
11:52 AM 78.1 °F - 57.0 °F 48% 30.03 in 10.0 mi NW 8.1 mph - N/A   Clear
12:52 PM 80.1 °F 80.0 °F 54.0 °F 40% 30.02 in 10.0 mi NW 11.5 mph - N/A   Clear
1:52 PM 82.0 °F 81.2 °F 53.1 °F 37% 30.01 in 10.0 mi WNW 16.1 mph 23.0 mph N/A   Clear
2:52 PM 82.9 °F - 52.0 °F 34% 30.00 in 10.0 mi WNW 10.4 mph 24.2 mph N/A   Partly Cloudy
3:52 PM 82.9 °F - 51.1 °F 33% 29.99 in 10.0 mi WNW 6.9 mph - N/A   Scattered Clouds
4:52 PM 84.9 °F - 51.1 °F 31% 29.97 in 10.0 mi NW 12.7 mph 21.9 mph N/A   Clear
5:52 PM 84.0 °F - 51.1 °F 32% 29.96 in 10.0 mi WNW 8.1 mph - N/A   Clear
6:52 PM 84.0 °F - 51.1 °F 32% 29.94 in 10.0 mi NW 8.1 mph - N/A   Clear
7:52 PM 82.9 °F - 51.1 °F 33% 29.92 in 10.0 mi NNW 5.8 mph - N/A   Clear
8:52 PM 79.0 °F - 55.0 °F 44% 29.91 in 10.0 mi NE 3.5 mph - N/A   Clear
9:52 PM 69.1 °F - 59.0 °F 70% 29.93 in 10.0 mi Calm Calm - N/A   Clear
10:52 PM 64.9 °F - 59.0 °F 81% 29.94 in 10.0 mi Calm Calm - N/A   Clear
11:52 PM 63.0 °F - 59.0 °F 87% 29.93 in 10.0 mi North 4.6 mph - N/A   Clear